Big Rapids, MI

12:06 AM EDT on June 25, 2017 (GMT -0400)
Roben-Hood

Weather History for KRQB - September, 2014

Change the Weather History Date:

Saturday, September 20, 2014

  Actual Average Record
Temperature  
Mean Temperature 66 °F -  
Max Temperature 75 °F 68 °F 83 °F (1978)
Min Temperature 58 °F 46 °F 34 °F (1981)
Cooling Degree Days 2    
Growing Degree Days 16 (Base 50)    
Moisture  
Dew Point 60 °F    
Average Humidity 85    
Maximum Humidity 100    
Minimum Humidity 69    
Precipitation  
Precipitation 0.19 in - - ()
Sea Level Pressure  
Sea Level Pressure 29.80 in    
Wind  
Wind Speed 10 mph (SW)    
Max Wind Speed 20 mph    
Max Gust Speed 29 mph    
Visibility 9 miles    
Events Rain    
Averages and records for this station are not official NWS values.
T = Trace of Precipitation, MM = Missing Value Source: NWS Daily Summary

Daily Weather History Graph

Daily Weather History Graph

Search for Another Location

Airport or City:

Trip Planner

Search our weather history database for the weather conditions in past years. The results will help you decide how hot, cold, wet, or windy it might be!

Date:

Astronomy

Sep. 20, 2014 Rise Set
Actual Time 7:26 AM EDT 7:43 PM EDT
Civil Twilight 6:58 AM EDT 8:11 PM EDT
Nautical Twilight 6:24 AM EDT 8:45 PM EDT
Astronomical Twilight 5:49 AM EDT 9:19 PM EDT
Moon 4:00 AM EDT (9/20) 5:50 PM EDT (9/20)
Length of Visible Light 13h 13m
Length of Day
12h 16m
Waning Crescent, 11% of the Moon is Illuminated
Sep 20
Waning Crescent
Sep 24
New
Oct 1
First Quarter
Oct 8
Full
Oct 15
Last Quarter

Hourly Weather History & Observations

Time (EDT) Temp. Dew Point Humidity Pressure Visibility Wind Dir Wind Speed Gust Speed Precip Events Conditions
12:15 AM 60.3 °F 51.3 °F 72% 29.93 in 10.0 mi South 9.2 mph - N/A   Scattered Clouds
12:35 AM 60.8 °F 50.9 °F 70% 29.94 in 10.0 mi SSW 6.9 mph - N/A   Clear
12:54 AM 60.3 °F 50.9 °F 71% 29.92 in 10.0 mi South 10.4 mph 16.1 mph N/A   Clear
1:15 AM 60.1 °F 50.9 °F 72% 29.92 in 10.0 mi SSW 10.4 mph - N/A   Clear
1:35 AM 60.3 °F 50.9 °F 71% 29.92 in 10.0 mi SSW 9.2 mph - N/A   Mostly Cloudy
1:54 AM 60.3 °F 50.7 °F 71% 29.92 in 10.0 mi SSW 10.4 mph - N/A   Overcast
2:15 AM 59.7 °F 50.4 °F 71% 29.92 in 10.0 mi SSW 8.1 mph - N/A   Scattered Clouds
2:35 AM 59.0 °F 50.4 °F 73% 29.91 in 10.0 mi South 8.1 mph - N/A   Clear
2:54 AM 59.0 °F 50.4 °F 73% 29.90 in 10.0 mi South 10.4 mph 17.3 mph N/A   Scattered Clouds
3:15 AM 59.0 °F 50.4 °F 73% 29.89 in 10.0 mi SSW 9.2 mph 16.1 mph N/A   Scattered Clouds
3:35 AM 58.8 °F 50.5 °F 74% 29.87 in 10.0 mi South 11.5 mph 18.4 mph N/A   Clear
3:54 AM 59.0 °F 50.7 °F 74% 29.86 in 10.0 mi SSW 9.2 mph 17.3 mph N/A   Scattered Clouds
4:15 AM 59.4 °F 51.1 °F 74% 29.86 in 10.0 mi SSW 6.9 mph - N/A   Clear
4:35 AM 60.1 °F 52.0 °F 75% 29.87 in 10.0 mi SSW 9.2 mph 17.3 mph N/A   Mostly Cloudy
4:54 AM 60.3 °F 52.5 °F 76% 29.87 in 10.0 mi SSW 6.9 mph 18.4 mph N/A   Mostly Cloudy
5:15 AM 60.3 °F 53.1 °F 77% 29.87 in 10.0 mi SW 8.1 mph - N/A   Clear
5:35 AM 60.8 °F 53.8 °F 78% 29.87 in 10.0 mi SW 10.4 mph 16.1 mph N/A   Mostly Cloudy
5:54 AM 61.0 °F 54.5 °F 79% 29.86 in 10.0 mi SW 12.7 mph 23.0 mph N/A   Overcast
6:15 AM 61.3 °F 55.0 °F 80% 29.85 in 10.0 mi SW 11.5 mph 17.3 mph N/A   Overcast
6:35 AM 61.7 °F 55.4 °F 80% 29.84 in 10.0 mi SW 12.7 mph 18.4 mph N/A   Mostly Cloudy
6:55 AM 61.9 °F 55.9 °F 81% 29.84 in 10.0 mi SW 11.5 mph 20.7 mph N/A   Mostly Cloudy
7:15 AM 62.2 °F 56.5 °F 81% 29.84 in 10.0 mi SW 8.1 mph 21.9 mph N/A   Mostly Cloudy
7:34 AM 61.9 °F 57.2 °F 85% 29.84 in 10.0 mi SW 10.4 mph - N/A   Scattered Clouds
7:55 AM 62.6 °F 57.6 °F 84% 29.83 in 10.0 mi SSW 8.1 mph - N/A   Scattered Clouds
8:15 AM 62.8 °F 58.3 °F 85% 29.82 in 10.0 mi SSW 11.5 mph 17.3 mph N/A   Scattered Clouds
8:34 AM 62.8 °F 58.6 °F 86% 29.82 in 10.0 mi SW 11.5 mph 18.4 mph N/A   Scattered Clouds
8:55 AM 63.0 °F 59.0 °F 87% 29.82 in 10.0 mi SSW 9.2 mph - N/A   Scattered Clouds
9:15 AM 63.1 °F 59.2 °F 87% 29.80 in 10.0 mi SSW 10.4 mph 17.3 mph N/A   Scattered Clouds
9:34 AM 63.9 °F 59.7 °F 86% 29.80 in 10.0 mi SSW 11.5 mph 18.4 mph N/A   Scattered Clouds
9:55 AM 64.6 °F 59.9 °F 85% 29.81 in 10.0 mi WSW 8.1 mph 19.6 mph N/A   Scattered Clouds
10:15 AM 65.5 °F 60.4 °F 84% 29.82 in 10.0 mi SW 8.1 mph 16.1 mph N/A   Scattered Clouds
10:34 AM 66.0 °F 61.0 °F 84% 29.82 in 10.0 mi SW 17.3 mph 24.2 mph N/A   Scattered Clouds
10:55 AM 66.7 °F 61.2 °F 82% 29.82 in 10.0 mi SW 10.4 mph 21.9 mph N/A   Scattered Clouds
11:15 AM 67.6 °F 61.7 °F 81% 29.82 in 10.0 mi SW 12.7 mph 24.2 mph N/A   Clear
11:34 AM 68.2 °F 62.2 °F 81% 29.82 in 10.0 mi SW 6.9 mph 18.4 mph N/A   Scattered Clouds
11:55 AM 68.9 °F 62.6 °F 80% 29.83 in 10.0 mi WSW 12.7 mph 20.7 mph N/A   Clear
12:15 PM 69.3 °F 62.8 °F 80% 29.81 in 10.0 mi SW 9.2 mph - N/A   Clear
12:34 PM 69.6 °F 64.0 °F 82% 29.80 in 10.0 mi SW 13.8 mph 20.7 mph N/A   Scattered Clouds
12:55 PM 72.0 °F 64.2 °F 77% 29.80 in 10.0 mi SW 13.8 mph 20.7 mph N/A   Scattered Clouds
1:14 PM 70.7 °F 64.9 °F 82% 29.77 in 10.0 mi South 11.5 mph 19.6 mph N/A Rain Light Rain
1:35 PM 73.2 °F 65.1 °F 76% 29.77 in 10.0 mi SSW 13.8 mph 24.2 mph N/A   Scattered Clouds
1:55 PM 73.8 °F 64.4 °F 72% 29.77 in 10.0 mi SSW 9.2 mph 24.2 mph N/A   Scattered Clouds
2:14 PM 74.7 °F 64.8 °F 71% 29.76 in 10.0 mi SW 16.1 mph 23.0 mph N/A   Clear
2:35 PM 74.1 °F 63.9 °F 70% 29.75 in 10.0 mi SW 17.3 mph 27.6 mph N/A   Clear
2:55 PM 75.0 °F 64.6 °F 70% 29.76 in 10.0 mi SSW 11.5 mph 23.0 mph N/A   Clear
3:14 PM 74.7 °F 63.9 °F 69% 29.75 in 10.0 mi SSW 19.6 mph 28.8 mph N/A   Scattered Clouds
3:35 PM 72.1 °F 63.9 °F 75% 29.77 in 10.0 mi SW 17.3 mph 26.5 mph N/A   Mostly Cloudy
3:55 PM 69.6 °F 64.4 °F 83% 29.75 in 7.0 mi SW 12.7 mph 20.7 mph N/A Rain Light Rain
4:14 PM 68.0 °F 64.6 °F 89% 29.76 in 10.0 mi SW 11.5 mph 19.6 mph N/A   Overcast
4:35 PM 66.2 °F 64.6 °F 94% 29.76 in 4.0 mi WSW 10.4 mph 16.1 mph 0.03 in Rain Rain
4:55 PM 65.5 °F 64.9 °F 98% 29.75 in 5.0 mi SSW 6.9 mph 19.6 mph 0.08 in   Overcast
5:14 PM 66.0 °F 65.3 °F 98% 29.75 in 7.0 mi SW 6.9 mph 19.6 mph N/A   Overcast
5:35 PM 66.2 °F 65.3 °F 97% 29.75 in 7.0 mi SW 10.4 mph 21.9 mph N/A Rain Light Rain
5:55 PM 65.8 °F 65.3 °F 98% 29.75 in 5.0 mi WSW 10.4 mph 19.6 mph N/A   Overcast
6:14 PM 65.7 °F 65.5 °F 99% 29.74 in 4.0 mi West 8.1 mph - 0.03 in Rain Rain
6:35 PM 65.7 °F 65.5 °F 99% 29.74 in 2.5 mi WSW 12.7 mph 18.4 mph 0.11 in Rain Heavy Rain
6:55 PM 65.5 °F 65.3 °F 99% 29.72 in 10.0 mi WSW 5.8 mph - 0.11 in   Mostly Cloudy
7:14 PM 65.3 °F 64.8 °F 98% 29.71 in 10.0 mi Calm Calm - N/A   Scattered Clouds
7:35 PM 64.4 °F 64.2 °F 99% 29.71 in 10.0 mi South 3.5 mph - N/A   Scattered Clouds
7:55 PM 63.5 °F 63.1 °F 99% 29.72 in 10.0 mi Calm Calm - N/A   Scattered Clouds
8:14 PM 63.5 °F 63.3 °F 99% 29.72 in 10.0 mi South 3.5 mph - N/A   Mostly Cloudy
8:35 PM 64.0 °F 64.0 °F 100% 29.73 in 7.0 mi South 3.5 mph - N/A   Overcast
8:55 PM 64.8 °F 64.8 °F 100% 29.73 in 7.0 mi SW 5.8 mph - N/A   Overcast
9:14 PM 64.8 °F 64.8 °F 100% 29.74 in 7.0 mi SW 5.8 mph 16.1 mph N/A   Overcast
9:35 PM 64.8 °F 64.8 °F 100% 29.74 in 7.0 mi SW 8.1 mph - N/A   Overcast
9:55 PM 65.1 °F 64.9 °F 99% 29.74 in 7.0 mi SW 10.4 mph - N/A   Overcast
10:14 PM 64.8 °F 64.4 °F 99% 29.73 in 10.0 mi SW 10.4 mph 17.3 mph N/A   Mostly Cloudy
10:35 PM 64.4 °F 64.2 °F 99% 29.73 in 7.0 mi WSW 6.9 mph - N/A   Mostly Cloudy
10:55 PM 63.9 °F 63.9 °F 100% 29.72 in 7.0 mi SW 3.5 mph - N/A   Mostly Cloudy
11:14 PM 63.9 °F 63.9 °F 100% 29.71 in 7.0 mi SSW 10.4 mph - N/A   Mostly Cloudy
11:35 PM 64.4 °F 64.4 °F 100% 29.71 in 7.0 mi SW 10.4 mph 17.3 mph N/A   Overcast
11:54 PM 64.2 °F 64.2 °F 100% 29.70 in 7.0 mi SW 6.9 mph - N/A   Overcast